Regional Weather Roundup
Issued by NWS Northern Indiana

Home | Current Version | Previous Version | Graphics & Text | Print | Product List | Glossary On
Versions: 1 2 3 4 5 6 7 8 9 10 11 12 13 14 15 16 17 18 19 20 21 22 23 24 25 26 27 28 29 30 31 32 33 34 35 36 37 38 39 40 41 42 43 44 45 46 47 48 49 50
000
ASUS43 KIWX 200600
RWRIWX

KIWX WEATHER ROUNDUP
NATIONAL WEATHER SERVICE NORTHERN INDIANA
100 AM EST SAT JAN 20 2018

NOTE: "FAIR" INDICATES FEW OR NO CLOUDS BELOW 12,000 FEET WITH NO
SIGNIFICANT WEATHER AND/OR OBSTRUCTIONS TO VISIBILITY.

* THESE STATIONS ARE NOT UNDER NWS QUALITY CONTROL. THEY ALSO MAY NOT
  REPORT WEATHER SUCH AS PRECIPITATION OR FOG.

INZ001>027-200700-
NORTHERN INDIANA

CITY           SKY/WX    TMP DP  RH WIND       PRES   REMARKS
KNOX*          FAIR      34  27  75 SW13      29.85S WCI  25
SOUTH BEND     FAIR      33  24  69 SW18      29.84R WCI  22
6HR MIN TEMP:  33; 6HR MAX TEMP:  35;

GOSHEN         FAIR      33  24  69 SW21G30   29.84S WCI  21
6HR MIN TEMP:  33; 6HR MAX TEMP:  35;

MONTICELLO*    FAIR      33  23  67 SW17      29.88S WCI  22
6HR MIN TEMP:  33; 6HR MAX TEMP:  35;

FORT WAYNE     FAIR      34  25  69 SW16      29.87S WCI  24
6HR MIN TEMP:  33; 6HR MAX TEMP:  35;

PERU/GRISSOM   FAIR      33  25  72 SW16      29.88S WCI  23
6HR MIN TEMP:  33; 6HR MAX TEMP:  34;


$$
INZ028>050-200700-
CENTRAL INDIANA

CITY           SKY/WX    TMP DP  RH WIND       PRES   REMARKS
LAFAYETTE      FAIR      33  24  69 SW12      29.92R WCI  24
6HR MIN TEMP:  33; 6HR MAX TEMP:  34;

MUNCIE*        FAIR      35  22  58 SW17G25   29.91S WCI  25
6HR MIN TEMP:  35; 6HR MAX TEMP:  37;

INDIANAPOLIS   MOCLDY    36  22  56 SW17      29.96R
6HR MIN TEMP:  34; 6HR MAX TEMP:  37;


$$
MIZ043>046-050>051-056>058-064>065-071>073-077>080-200700-
SOUTHWEST LOWER MICHIGAN

CITY           SKY/WX    TMP DP  RH WIND       PRES   REMARKS
BATTLE CREEK   FAIR      34  24  67 SW18      29.77F WCI  23
6HR MIN TEMP:  33; 6HR MAX TEMP:  35;

BENTON HARBOR  FAIR      39  25  57 SW12      29.79S
6HR MIN TEMP:  34; 6HR MAX TEMP:  40;

COLDWATER*     FAIR      34  24  67 SW15G25   29.81S WCI  24
6HR MIN TEMP:  33; 6HR MAX TEMP:  36;

HILLSDALE*     FAIR      34  23  64 SW14G24   29.78F WCI  24
HOLLAND        FAIR      37  28  70 SW23G32   29.74S
6HR MIN TEMP:  34; 6HR MAX TEMP:  38;

GRAND RAPIDS   FAIR      39  26  59 SW24G30   29.71F
6HR MIN TEMP:  34; 6HR MAX TEMP:  40;

KALAMAZOO      FAIR      36  24  62 SW13      29.78F
6HR MIN TEMP:  33; 6HR MAX TEMP:  37;

STURGIS*       FAIR      33  25  71 SW16      29.82S WCI  23
6HR MIN TEMP:  33; 6HR MAX TEMP:  36;

THREE RIVERS*  FAIR      35  25  67 SW13      29.81S WCI  26
6HR MIN TEMP:  33; 6HR MAX TEMP:  36;


$$
OHZ001>008-015>018-024>025-200700-
NORTHWEST OHIO

CITY           SKY/WX    TMP DP  RH WIND       PRES   REMARKS
DEFIANCE       FAIR      34  23  64 SW15G23   29.86R WCI  24
6HR MIN TEMP:  32; 6HR MAX TEMP:  35;

FINDLAY        FAIR      34  22  61 SW18G28   29.87R WCI  23
6HR MIN TEMP:  33; 6HR MAX TEMP:  36;

TOLEDO EXPRESS FAIR      36  26  67 SW21G29   29.84R
6HR MIN TEMP:  34; 6HR MAX TEMP:  36;

TOLEDO METCALF FAIR      34  24  67 SW17G26   29.85R WCI  23
6HR MIN TEMP:  34; 6HR MAX TEMP:  35;

LIMA           FAIR      33  24  69 SW17      29.89R WCI  22
6HR MIN TEMP:  32; 6HR MAX TEMP:  34;


$$
AND FOR LAKE MICHIGAN COASTAL AND OPEN LAKE BUOY OBSERVATIONS

STATION/POSITION TEMP    WIND        PRES    VSBY  WAVE
                 AIR SEA DIR/SP/G                  HT/PER
                 (F)     (DEG/KT/KT) (MB)    (MI)  (FT/S)
CALUMET HARBOR    38     200/ 16/ 21 1008.2S
MICHIGAN CITY     38     190/ 20/ 23   N/A
BURNS HARBOR      38     210/ 18/ 27 1010.2R
SAINT JOSEPH      36     210/ 14/ 19 1009.5

$$
&&



USA.gov is the U.S. government's official web portal to all federal, state and local government web resources and services.